www.pogodaiklimat.ru

Погода и климат >> Архив погоды >> Мексика >> Aguascalientes


ПОГОДА в Aguascalientes

  • Прогноз погоды в Aguascalientes
  • Монитор погоды в Aguascalientes
  • Климат города

АРХИВ ПОГОДЫ в Aguascalientes

Время (UTC), дата Ветер
(напр.,м/с)
 
Видим.   Явления Облачность Т
(С)
Тd
(С)
f
(%)
Тe
(С)
Тes
(С)
Комфортность P
(гПа)
Po
(гПа)
Тmin
(С)
Tmax
(С)
R
(мм)
R24
(мм)
S
(см)
03 12.11 штиль 0 10 км ясно +15.0 +9.2 68 +15 +15 1010.6 816.9
06 12.11 штиль 0 10 км 5/0
[Ac trans]
+14.0 +10.4 79 +14 +14 1011.7 817.0 +26.0
15 12.11 штиль 0 15 км мгла 9/3 1200 м
[Sc Ac trans]
+14.6 +8.6 67 +14 +16 1019.0 818.4
18 12.11 З 2 20 км мгла 6/0 2000 м
[Ac trans]
+22.2 +5.1 33 +23 +30 комфорт 1016.2 817.3 +9.4 +22.6
21 12.11 штиль 0 20 км в посл. час морось 9/9 1200 м
[Sc diur, vesp]
+18.2 +9.7 58 +18 +19 1013.2 815.8 0.8
00 13.11 Ю 1 20 км 9/9 1000 м
[Sc diur, vesp]
+18.6 +6.7 46 +20 +20 1012.1 815.8 +9.4 +24.0
03 13.11 штиль 0 10 км слабая морось 10/6 1200 м
[Sc diur, vesp Ac trans]
+14.0 +11.2 83 +14 +14 1012.5 817.1 0.7
06 13.11 штиль 0 10 км дымка 4/0 2000 м
[Ac trans]
+12.6 +11.0 90 +12 +12 1014.5 817.5 0.7
18 13.11 С 6 20 км мгла 6/3 1200 м
[Cu hum Ac und]
+14.0 +3.8 50 +12 +14 1020.6 819.2 +8.6 +15.6
21 13.11 С 4 20 км мгла 4/4 1200 м
[Cu med, cong]
+12.0 -0.7 41 +10 +14 1019.1 818.2
00 14.11 20 км мгла н/о +8.0 -1.8 50 +5 +5 1020.5 819.3 +7.6 +15.6
03 14.11 С 5 10 км 4/4 1200 м
[Sc diur, vesp]
+6.6 -2.3 53 +3 +3 1024.2 821.6
06 14.11 С 5 10 км 10/10 1200 м
[St]
+4.2 +14.3 100 -1 -1 1026.8 822.4 +4.0 +15.6
15 14.11 С 4 25 км 9/3 1200 м
[Sc Ac As Cs]
+3.6 -6.7 47 -0 +1 1031.9 823.2
18 14.11 СЗ 4 25 км 9/5 1200 м
[Sc Ac trans]
+8.2 -4.0 42 +6 +8 1030.9 822.8 +2.2 +8.6
21 14.11 С 1 25 км 6/6 1200 м
[Sc diur, vesp]
+14.4 -0.5 36 +15 +19 1025.1 819.5
00 15.11 С 1 20 км ясно +14.6 -0.5 35 +15 +15 1022.6 818.8 +2.2 +16.0
03 15.11 штиль 0 10 км ясно +8.0 +2.1 66 +7 +7 1022.0 820.0
06 15.11 С 2 10 км ясно +7.6 -0.1 58 +6 +6 1022.5 820.6 +2.2 +16.0
15 15.11 С 2 20 км ясно +7.2 -0.5 58 +5 +8 1026.5 820.5
18 15.11 З 2 25 км ясно +16.0 -0.9 31 +16 +28 опасность
простуды
1023.5 819.1 +3.6 +16.8
21 15.11 Ю 5 20 км 3/0
[Ci]
+19.8 -2.3 22 +20 +24 1019.7 816.4
00 16.11 Ю 3 20 км 3/0
[Ci]
+18.0 -1.8 26 +18 +18 1016.0 816.5 +3.6 +21.0
03 16.11 штиль 0 10 км ясно +9.8 +3.2 63 +9 +9 1015.6 817.9
06 16.11 штиль 0 10 км дымка ясно +6.8 +3.4 79 +6 +6 1017.0 818.2 +3.6 +21.0
15 16.11 штиль 0 20 км ясно +7.8 +0.9 62 +7 +11 1025.7 819.3
18 16.11 Ю 4 25 км ясно +18.6 +0.6 30 +19 +26 1022.3 818.1 +2.4 +19.0
21 16.11 ЮЗ 3 20 км 4/0
[Ci]
+22.0 -2.0 20 +21 +27 комфорт 1016.2 815.7
00 17.11 ЮВ 1 20 км 5/3
[Cb calv Ac und Cs]
+19.6 -2.8 22 +21 +21 комфорт 1014.0 815.7 +2.4 +23.0
15 17.11 штиль 0 20 км 4/0 2000 м
[Ac trans]
+8.8 +5.9 82 +8 +11 1023.1 819.6
18 17.11 Ю 4 25 км 6/0
[Ci fib]
+20.2 -2.3 22 +20 +27 1021.0 818.4 +4.0 +21.0
00 18.11 штиль 0 20 км 10/1 1000 м
[Sc Ac trans Ci]
+19.0 -0.3 27 +19 +19 1013.9 816.2 +0.4 +24.0
03 18.11 штиль 0 10 км 10/0 2000 м
[Ac trans Ci fib]
+12.2 +2.4 51 +12 +12 1013.7 818.0
06 18.11 штиль 0 10 км дымка 10/0 2000 м
[Ac trans Ci sp]
+9.8 +3.0 63 +9 +9 1015.2 818.2 +4.0 +24.0
12 18.11 штиль 0 10 км дымка 4/0 2000 м
[Ac trans]
+6.6 +4.8 88 +6 +6 1019.7 817.8 +6.4 +24.0
15 18.11 штиль 0 20 км 4/0 2000 м
[Ac trans]
+9.0 +4.1 71 +8 +11 1023.1 819.3
18 18.11 ЮЗ 2 25 км 3/0
[Cs]
+21.0 -2.5 20 +21 +32 комфорт 1020.3 818.4 +6.4 +21.6

 

Местоположение метеостанции Aguascalientes (Мексика): широта 21.87 долгота -102.30 высота над уровнем моря 1874 м.

В архиве по умолчанию представлена погода в Aguascalientes за последнюю неделю. Архивные данные за месяц целиком и за предыдущие месяцы, начиная с января 2011 года, Вы можете получить, выбрав интересующий диапазон дат из раскрывающегося списка и нажав кнопку "Ввод!".


*Определитесь, кто Вы:
робот инопланетянин человек

Внимание! Время в таблицах - всемирное. Для получения местного времени необходимо прибавить поправку, которая в Aguascalientes равна -6 ч.

Смотрите также архив погоды в соседних городах и на ближайших метеорологических станциях:

Погода в Lagos De Moreno (Мексика) (70 км)
Погода в Colotlan (Мексика) (103 км)
Погода в Zacatecas (Мексика) (103 км)
Погода в Huejucar (Мексика) (124 км)
Погода в San Luis Potosi (Мексика) (148 км)
Погода в Guanajuato (Мексика) (149 км)
Погода в Guadalajara (Мексика) (169 км)
Погода в Zamora (Мексика) (210 км)
Погода в Sombrerete (Мексика) (237 км)
Погода в Rio Verde (Мексика) (240 км)

Пояснения к столбцам:

Ветер - указаны скорость ветра в м/с - средняя за 10 мин, порывы в срок и между сроками (в фигурных скобках) и направление, откуда дует ветер: С - северный, СВ - северо-восточный, В - восточный, ЮВ - юго-восточный, Ю - южный, ЮЗ - юго-западный, З - западный, СЗ - северо-западный.
Видимость - горизонтальная дальность видимости в метрах или километрах. При видимости от 1 до 10 км при отсутствии осадков обычно наблюдается дымка, при ухудшении видимости до 1 км и менее - туман. В сухую погоду видимость может ухудшаться дымом, пылью или мглою.
Явления - указаны атмосферные явления, наблюдавшиеся в срок или в последний час перед сроком; фигурными скобками обозначены явления, наблюдавшиеся между сроками (за 1-3 часа до срока); квадратными скобками обозначены град или гололедные отложения с указанием их диаметра в мм.
Облачность - указаны через наклонную черту общая и нижняя облачность в баллах и высота нижней границы облаков в метрах; квадратными скобками обозначены формы облаков: Ci - перистые, Cs - перисто-слоистые, Cc - перисто-кучевые, Ac - высококучевые, As - высокослоистые, Sc - слоисто-кучевые, Ns - слоисто-дождевые, Cu - кучевые, Cb - кучево-дождевые. Подробнее классификацию облаков см. в Атласе облаков (PDF).
T - Температура воздуха - температура, измеренная на высоте 2 м над землей.
Td - Температура точки росы - температура, при понижении до которой содержащийся в воздухе водяной пар достигнет насыщения.
f - Относительная влажность воздуха - влажноcть воздуха, измеренная на высоте 2 м над землей.
Te - Эффективная температура - температура, которую ощущает одетый по сезону человек в тени. Характеристика душности погоды. При расчете учитывается влияние влажности воздуха и скорости ветра на теплоощущения человека.
Tes - Эффективная температура на солнце - температура, которую ощущает человек, с поправкой на солнечный нагрев. Характеристика знойности погоды. Зависит от высоты солнца над горизонтом, облачности и скорости ветра. Ночью, в пасмурную погоду, а также при ветре 12 м/с и более поправка равна нулю.
P - Атмосферное давление - приведенное к уровню моря атмосферное давление.
Po - Атмосферное давление - измеренное на уровне метеостанции атмосферное давление.
Tmin - Минимальная температура - минимум температуры воздуха на высоте 2 м над землей.
Tmax - Максимальная температура - максимум температуры воздуха на высоте 2 м над землей.
R - Количество осадков - Количество выпавших осадков за период времени, мм. При наведении курсора мыши на число - период времени, за который выпало указанное количество осадков.
R24 - Количество осадков - Количество выпавших осадков за 24 часа, мм.
S - Снежный покров - Высота снежного покрова, см. При наведении курсора мыши на число - состояние снежного покрова и степень покрытия местности в баллах.